Change the Weather History Date:

Tuesday, November 13, 2012

  Actual Average Record
Temperature  
Mean Temperature 42 °F -  
Max Temperature 57 °F 57 °F 80 °F (1999)
Min Temperature 26 °F 40 °F 17 °F (2013)
Degree Days  
Heating Degree Days 24    
Moisture  
Dew Point 29 °F    
Average Humidity 75    
Maximum Humidity 100    
Minimum Humidity 27    
Precipitation  
Precipitation 0.00 in - - ()
Sea Level Pressure  
Sea Level Pressure 30.38 in    
Wind  
Wind Speed 6 mph (South)    
Max Wind Speed 17 mph    
Max Gust Speed 23 mph    
Visibility 10 miles    
Events      
Averages and records for this station are not official NWS values.
T = Trace of Precipitation, MM = Missing Value Source: NWS Daily Summary

Daily Weather History Graph

Daily Weather History Graph

Search for Another Location

Airport or City:

Trip Planner

Search our weather history database for the weather conditions in past years. The results will help you decide how hot, cold, wet, or windy it might be!

Date:

Astronomy

Nov. 13, 2012 Rise Set
Actual Time 7:06 AM CST 5:23 PM CST
Civil Twilight 6:39 AM CST 5:51 PM CST
Nautical Twilight 6:08 AM CST 6:22 PM CST
Astronomical Twilight 5:38 AM CST 6:52 PM CST
Moon 6:46 AM CST (11/13) 5:18 PM CST (11/13)
Length of Visible Light 11h 11m
Length of Day
10h 16m
Waning Crescent, 0% of the Moon is Illuminated
Nov 13
Waning Crescent
Nov 13
New
Nov 20
First Quarter
Nov 28
Full
Dec 6
Last Quarter

Hourly Weather History & Observations

Time (CST) Temp. Windchill Dew Point Humidity Pressure Visibility Wind Dir Wind Speed Gust Speed Precip Events Conditions
12:15 AM 32.0 °F 27.5 °F 28.4 °F 87% 30.45 in 10.0 mi SSE 4.6 mph - N/A   Clear
12:35 AM 32.0 °F 28.7 °F 28.4 °F 87% 30.45 in 10.0 mi South 3.5 mph - N/A   Clear
12:55 AM 32.0 °F 28.7 °F 28.4 °F 87% 30.44 in 10.0 mi South 3.5 mph - N/A   Clear
1:15 AM 30.2 °F 25.4 °F 28.4 °F 93% 30.44 in 10.0 mi SSE 4.6 mph - N/A   Clear
1:35 AM 30.2 °F 24.3 °F 28.4 °F 93% 30.44 in 10.0 mi SSE 5.8 mph - N/A   Clear
1:55 AM 30.2 °F 24.3 °F 28.4 °F 93% 30.44 in 10.0 mi SSE 5.8 mph - N/A   Clear
2:15 AM 30.2 °F 24.3 °F 28.4 °F 93% 30.44 in 10.0 mi SSE 5.8 mph - N/A   Clear
2:35 AM 30.2 °F 26.7 °F 28.4 °F 93% 30.44 in 10.0 mi South 3.5 mph - N/A   Clear
2:55 AM 30.2 °F 26.7 °F 28.4 °F 93% 30.43 in 10.0 mi South 3.5 mph - N/A   Clear
3:15 AM 30.2 °F 26.7 °F 28.4 °F 93% 30.43 in 10.0 mi South 3.5 mph - N/A   Clear
3:35 AM 28.4 °F 24.6 °F 28.4 °F 100% 30.42 in 10.0 mi South 3.5 mph - N/A   Clear
3:55 AM 28.4 °F 24.6 °F 26.6 °F 93% 30.42 in 10.0 mi South 3.5 mph - N/A   Clear
4:15 AM 28.4 °F 24.6 °F 26.6 °F 93% 30.41 in 10.0 mi South 3.5 mph - N/A   Clear
4:35 AM 28.4 °F 23.3 °F 26.6 °F 93% 30.41 in 10.0 mi SSE 4.6 mph - N/A   Clear
4:55 AM 28.4 °F 23.3 °F 28.4 °F 100% 30.41 in 10.0 mi SSE 4.6 mph - N/A   Clear
6:52 AM 26.6 °F 17.5 °F 24.8 °F 93% 30.43 in 10.0 mi South 9.2 mph - N/A   Partly Cloudy
8:50 AM 33.8 °F 25.8 °F 32.0 °F 93% 30.45 in 10.0 mi South 10.4 mph - N/A   Scattered Clouds
9:50 AM 44.6 °F 38.8 °F 35.6 °F 71% 30.44 in 10.0 mi South 11.5 mph - N/A   Scattered Clouds
10:50 AM 50.0 °F - 32.0 °F 50% 30.43 in 10.0 mi SSW 16.1 mph - N/A   Scattered Clouds
11:50 AM 53.6 °F - 32.0 °F 44% 30.41 in 10.0 mi SSW 16.1 mph - N/A   Scattered Clouds
12:50 PM 55.4 °F - 28.4 °F 36% 30.37 in 10.0 mi South 15.0 mph 20.7 mph N/A   Scattered Clouds
1:50 PM 57.2 °F - 24.8 °F 29% 30.32 in 10.0 mi South 16.1 mph 23.0 mph N/A   Mostly Cloudy
2:50 PM 57.2 °F - 24.8 °F 29% 30.29 in 10.0 mi South 17.3 mph 21.9 mph N/A   Mostly Cloudy
3:50 PM 57.2 °F - 23.0 °F 27% 30.28 in 10.0 mi South 17.3 mph 21.9 mph N/A   Mostly Cloudy
4:50 PM 53.6 °F - 26.6 °F 35% 30.30 in 10.0 mi South 11.5 mph - N/A   Mostly Cloudy
5:50 PM 46.4 °F 42.4 °F 30.2 °F 53% 30.30 in 10.0 mi South 8.1 mph - N/A   Mostly Cloudy
6:50 PM 46.4 °F 41.9 °F 30.2 °F 53% 30.31 in 10.0 mi South 9.2 mph - N/A   Mostly Cloudy
7:50 PM 42.8 °F 39.3 °F 30.2 °F 61% 30.33 in 10.0 mi SSE 5.8 mph - N/A   Mostly Cloudy
8:15 PM 41.0 °F 38.0 °F 30.2 °F 65% 30.33 in 10.0 mi SSE 4.6 mph - N/A   Clear
8:35 PM 39.2 °F 33.6 °F 30.2 °F 70% 30.33 in 10.0 mi SE 8.1 mph - N/A   Clear
8:50 PM 39.2 °F 33.0 °F 28.4 °F 65% 30.34 in 10.0 mi SSE 9.2 mph - N/A   Scattered Clouds
8:55 PM 37.4 °F 30.8 °F 30.2 °F 75% 30.33 in 10.0 mi SE 9.2 mph - N/A   Clear
9:15 PM 37.4 °F 31.4 °F 30.2 °F 75% 30.32 in 10.0 mi SE 8.1 mph - N/A   Clear
9:35 PM 37.4 °F 30.8 °F 30.2 °F 75% 30.33 in 10.0 mi SSE 9.2 mph - N/A   Clear
9:55 PM 35.6 °F 32.8 °F 30.2 °F 81% 30.33 in 10.0 mi SSE 3.5 mph - N/A   Clear
10:15 PM 35.6 °F - 30.2 °F 81% 30.33 in 10.0 mi Calm Calm - N/A   Clear
10:35 PM 35.6 °F 32.8 °F 30.2 °F 81% 30.33 in 10.0 mi South 3.5 mph - N/A   Clear
10:55 PM 35.6 °F - 30.2 °F 81% 30.33 in 10.0 mi Calm Calm - N/A   Clear
11:15 PM 35.6 °F - 30.2 °F 81% 30.33 in 10.0 mi Calm Calm - N/A   Clear
11:35 PM 35.6 °F - 30.2 °F 81% 30.33 in 10.0 mi Calm Calm - N/A   Clear
11:55 PM 33.8 °F 30.8 °F 28.4 °F 81% 30.33 in 10.0 mi SSE 3.5 mph - N/A   Clear